[[{"header":{"parameterUnit":"m.s-1","parameterCategory":1,"la1":30.2991,"la2":30.254,"lo1":-89.0895,"lo2":-89.0444,"dy":0.0017,"dx":0.0017,"nx":28,"ny":28,"refTime":"2024-05-01T21:00:00:Z","depth":0,"parameterNumber":2,"parameterNumberName":"U-component_of_WINDS"},"data":[0,0,0,0,0,0,0,0,0,0,0,0,0,0,0,0,0,0,0,0,0,0,0,0,0,0,0,0,0,0,0,0,0,0,0,0,0,0,0,0,0,0,0,0,0,0,0,0,0,0,0,0,0,0,0,0,0,0,-2.196,-2.196,0,-2.1955,-2.1955,-2.1955,-2.1879,-2.1877,-2.1875,-2.1873,-2.187,-2.1871,-2.1873,0,0,0,0,0,0,0,0,0,0,0,0,0,-2.1905,-2.1907,-2.196,-2.196,-2.196,-2.1955,-2.1955,-2.1955,-2.1879,-2.1877,-2.1875,-2.1872,-2.1869,-2.1871,-2.1873,0,0,0,0,0,0,0,0,0,0,0,0,0,-2.1918,-2.1907,-2.196,-2.1922,-2.1918,-2.1955,-2.1955,-2.1955,-2.188,-2.1877,-2.1874,-2.1871,-2.1869,-2.1871,-2.1874,-2.1948,0,0,-2.1881,-2.1883,0,0,0,0,0,0,0,0,-2.1917,-2.192,-2.1927,-2.1924,-2.192,-2.1915,-2.1935,-2.1953,-2.1881,-2.1894,-2.1873,-2.187,-2.1887,-2.1888,-2.1894,-2.1948,-2.1948,-2.1882,-2.1883,-2.1884,-2.1885,0,0,0,0,0,0,0,-2.1916,-2.192,-2.1958,-2.1928,-2.1923,-2.1905,-2.1904,-2.1938,-2.1907,-2.1893,-2.1887,-2.1888,-2.1885,-2.1891,-2.1893,-2.1948,-2.1882,-2.1884,-2.1886,-2.1887,-2.2063,-2.2066,0,0,0,0,0,0,-2.1921,-2.1919,-2.1958,-2.1958,-2.1912,-2.1908,-2.1907,-2.192,-2.1907,-2.1902,-2.189,-2.1884,-2.1888,-2.189,-2.1893,-2.1979,-2.1884,-2.1887,-2.1888,-2.206,-2.2064,-2.2067,0,0,0,0,0,0,-2.192,-2.1925,-2.1959,-2.1937,-2.194,-2.1912,-2.1927,-2.1921,-2.1927,-2.1905,-2.1899,-2.1903,-2.1886,-2.1889,-2.1935,-2.1978,-2.1888,-2.189,-2.2056,-2.2061,-2.2066,-2.2153,0,0,0,0,0,0,-2.1919,-2.1925,-2.1953,-2.1938,-2.1942,-2.2001,-2.193,-2.1923,-2.1932,-2.1924,-2.1915,-2.191,-2.1884,-2.1931,-2.1937,-2.198,-2.1892,-2.2052,-2.2059,-2.2064,-2.2146,-2.216,-2.2172,0,0,0,0,0,-2.1917,-2.1978,-2.1954,-2.196,-2.1975,-2.2003,-2.2005,-2.1973,-2.1936,-2.1964,-2.1949,-2.1911,-2.1972,-2.1937,-2.1943,-2.1987,-2.205,-2.2057,-2.2064,-2.214,-2.2157,-2.2172,0,0,0,0,0,0,-2.1998,-2.1975,-2.1949,-2.2007,-2.2008,-2.199,-2.2024,-2.1992,-2.2004,-2.1996,-2.1957,-2.1955,-2.2008,-2.2002,-2.1962,-2.2058,-2.2004,-2.2013,-2.2061,-2.2077,-2.2089,-2.209,-2.1894,0,0,0,0,0,-2.2022,-2.2047,-2.2025,-2.2079,-2.208,-2.2053,-2.2064,-2.2039,-2.2038,-2.2038,-2.2027,-2.2028,-2.2048,-2.2062,-2.2079,-2.2145,-2.2142,-2.2178,-2.2191,-2.2202,-2.221,-2.2246,-2.2262,-2.2091,-2.2091,-2.209,0,0,-2.2074,-2.2064,-2.2082,-2.2095,-2.2092,-2.2119,-2.2053,-2.2084,-2.2103,-2.2043,-2.2086,-2.2078,-2.2077,-2.2133,-2.2158,-2.213,-2.2257,-2.2211,-2.222,-2.2222,-2.2254,-2.2271,-2.2285,-2.2095,-2.2095,-2.2094,0,0,-2.218,-2.2175,-2.2219,-2.2218,-2.2215,-2.2197,-2.2207,-2.2195,-2.2187,-2.2229,-2.2185,-2.2208,-2.2242,-2.2243,-2.2249,-2.2357,-2.2322,-2.2363,-2.2431,-2.2466,-2.248,-2.2491,-2.2531,-2.2545,-2.2371,-2.2371,-2.2372,0,-2.2244,-2.2282,-2.2246,-2.228,-2.2287,-2.2233,-2.2278,-2.2279,-2.2282,-2.2289,-2.2257,-2.23,-2.2295,-2.2352,-2.2378,-2.2384,-2.2396,-2.2364,-2.248,-2.2492,-2.2502,-2.2539,-2.2554,-2.2376,-2.2376,-2.2375,-2.2375,0,-2.2361,-2.2388,-2.2424,-2.2428,-2.2439,-2.2478,-2.2449,-2.2465,-2.244,-2.2425,-2.2469,-2.2461,-2.2476,-2.2487,-2.2463,-2.2541,-2.2524,-2.2487,-2.2432,-2.2524,-2.2558,-2.2572,-2.2384,-2.2382,-2.238,-2.2379,0,0,-2.2519,-2.2503,-2.2517,-2.2518,-2.2511,-2.2532,-2.2569,-2.2582,-2.2597,-2.2601,-2.2632,-2.2663,-2.2629,-2.2635,-2.261,-2.2641,-2.2728,-2.26,-2.26,-2.2625,-2.2814,-2.2842,-2.2859,-2.2704,-2.2707,-2.2709,-2.2814,0,-2.2623,-2.2684,-2.2653,-2.2719,-2.2744,-2.2693,-2.2726,-2.2725,-2.2712,-2.2732,-2.2717,-2.274,-2.2693,-2.2697,-2.2725,-2.2711,-2.2765,-2.2703,-2.2733,-2.2735,-2.2736,-2.2876,-2.2906,-2.3006,-2.2827,-2.2829,-2.2831,0,-2.2752,-2.2761,-2.2829,-2.2818,-2.2827,-2.2857,-2.2867,-2.2887,-2.2885,-2.2874,-2.2881,-2.2849,-2.2885,-2.283,-2.288,-2.2839,-2.2849,-2.2844,-2.2847,-2.285,-2.2789,-2.2883,-2.3037,-2.3052,-2.2851,-2.285,-2.2848,0,-2.2861,-2.289,-2.2935,-2.2938,-2.2926,-2.2948,-2.2944,-2.294,-2.2951,-2.296,-2.2967,-2.298,-2.2988,-2.3,-2.2973,-2.2935,-2.3027,-2.297,-2.3019,-2.302,-2.3041,-2.304,-2.3199,-2.3047,-2.3047,-2.3047,-2.3046,0,-2.298,-2.3024,-2.2984,-2.3012,-2.306,-2.3024,-2.3073,-2.3064,-2.306,-2.3086,-2.3043,-2.3068,-2.3031,-2.3052,-2.3031,-2.3076,-2.308,-2.3072,-2.3066,-2.3077,-2.3078,-2.3083,-2.3076,-2.305,-2.305,-2.3049,-2.3048,0,-2.3111,-2.3086,-2.3131,-2.3116,-2.3113,-2.315,-2.3137,-2.3162,-2.3146,-2.3179,-2.3185,-2.316,-2.3183,-2.3157,-2.3178,-2.3164,-2.3225,-2.3209,-2.3226,-2.3221,-2.3273,-2.3269,-2.3441,-2.3463,-2.3296,-2.3298,-2.3299,0,-2.3189,-2.3222,-2.321,-2.3224,-2.3222,-2.3245,-2.3255,-2.3221,-2.3234,-2.3236,-2.3261,-2.3281,-2.3294,-2.3334,-2.3318,-2.3334,-2.3319,-2.3378,-2.3321,-2.333,-2.332,-2.3319,-2.3323,-2.339,-2.3392,-2.3394,-2.3395,0,-2.3331,-2.3317,-2.3333,-2.3346,-2.3359,-2.3367,-2.3372,-2.3386,-2.3351,-2.3368,-2.3391,-2.3402,-2.3423,-2.3443,-2.3455,-2.3452,-2.3418,-2.3413,-2.3425,-2.3437,-2.3445,-2.3442,-2.3258,-2.3409,-2.3408,-2.3407,-2.3406,-2.3405,-2.3438,-2.3465,-2.3461,-2.3481,-2.3481,-2.3487,-2.351,-2.3497,-2.3515,-2.353,-2.3508,-2.3537,-2.3536,-2.3548,-2.3549,-2.3571,-2.3546,-2.3564,-2.3568,-2.3574,-2.3582,-2.3441,-2.3573,-2.3573,-2.3572,-2.3572,-2.3571,0,-2.3578,-2.3573,-2.3592,-2.36,-2.3616,-2.3582,-2.3586,-2.3602,-2.3628,-2.3629,-2.3643,-2.367,-2.3689,-2.3675,-2.3692,-2.3712,-2.3698,-2.3718,-2.3717,-2.3717,-2.3603,-2.3591,-2.373,-2.373,-2.373,-2.373,-2.373,-2.373,-2.3653,-2.3697,-2.3683,-2.3726,-2.3721,-2.3748,-2.3754,-2.3759,-2.376,-2.3792,-2.3807,-2.3798,-2.3793,-2.3809,-2.3825,-2.3821,-2.3829,-2.3856,-2.3846,-2.374,-2.3724,-2.371,-2.3698,-2.3857,-2.3858,-2.3957,-2.3958,-2.3959]},{"header":{"parameterUnit":"m.s-1","parameterCategory":1,"la1":30.2991,"la2":30.254,"lo1":-89.0895,"lo2":-89.0444,"dy":0.0017,"dx":0.0017,"nx":28,"ny":28,"refTime":"2024-05-01T21:00:00:Z","depth":0,"parameterNumber":3,"parameterNumberName":"V-component_of_WINDS"},"data":[0,0,0,0,0,0,0,0,0,0,0,0,0,0,0,0,0,0,0,0,0,0,0,0,0,0,0,0,0,0,0,0,0,0,0,0,0,0,0,0,0,0,0,0,0,0,0,0,0,0,0,0,0,0,0,0,0,0,3.5679,3.568,0,3.5798,3.5799,3.5801,3.5822,3.5821,3.582,3.5819,3.5938,3.5942,3.5946,0,0,0,0,0,0,0,0,0,0,0,0,0,3.5465,3.5469,3.5678,3.568,3.5681,3.5798,3.5799,3.5801,3.5822,3.5821,3.582,3.5819,3.5937,3.5942,3.5947,0,0,0,0,0,0,0,0,0,0,0,0,0,3.5569,3.5471,3.5678,3.5706,3.571,3.5797,3.5799,3.5801,3.5823,3.5821,3.582,3.5818,3.5936,3.5941,3.5948,3.6014,0,0,3.5966,3.5969,0,0,0,0,0,0,0,0,3.5563,3.5576,3.5701,3.5704,3.5709,3.5794,3.5768,3.5873,3.5823,3.578,3.5819,3.5818,3.5891,3.5901,3.5926,3.602,3.6025,3.5967,3.597,3.5973,3.5975,0,0,0,0,0,0,0,3.5556,3.5571,3.5726,3.5702,3.5707,3.5712,3.5725,3.5788,3.5842,3.5783,3.5785,3.5799,3.5893,3.5921,3.5929,3.6027,3.5967,3.5972,3.5976,3.5978,3.6182,3.6183,0,0,0,0,0,0,3.5544,3.5565,3.5722,3.5729,3.5631,3.5717,3.5731,3.5768,3.5842,3.5851,3.58,3.58,3.5911,3.5922,3.5934,3.6017,3.5973,3.5979,3.5982,3.618,3.6182,3.6184,0,0,0,0,0,0,3.5539,3.5558,3.5717,3.5648,3.5669,3.5722,3.5763,3.5771,3.5798,3.5855,3.5864,3.5819,3.591,3.5925,3.5995,3.6022,3.5982,3.5987,3.6178,3.6181,3.6183,3.6185,0,0,0,0,0,0,3.5533,3.5556,3.5583,3.5648,3.5672,3.5777,3.5765,3.5774,3.5809,3.581,3.5874,3.5883,3.591,3.5985,3.6001,3.603,3.5992,3.6176,3.6179,3.6182,3.6183,3.6187,3.6191,0,0,0,0,0,3.5525,3.5578,3.5584,3.5603,3.5707,3.5778,3.5792,3.5823,3.5811,3.5838,3.5874,3.5881,3.6016,3.5992,3.601,3.6041,3.6174,3.6178,3.6182,3.6181,3.6186,3.6191,0,0,0,0,0,0,3.5512,3.5587,3.5594,3.567,3.5718,3.5782,3.5817,3.5827,3.5879,3.5877,3.5912,3.5926,3.5994,3.6024,3.5996,3.611,3.6094,3.6102,3.6087,3.6093,3.6097,3.6089,3.5997,0,0,0,0,0,3.5518,3.5571,3.5633,3.5693,3.5717,3.5763,3.5795,3.5815,3.5865,3.5885,3.5926,3.5974,3.6028,3.6062,3.6114,3.6187,3.6201,3.6217,3.6221,3.6224,3.6231,3.6272,3.628,3.6197,3.6197,3.6197,0,0,3.5531,3.5578,3.5609,3.5692,3.5731,3.5785,3.578,3.5836,3.5876,3.5894,3.5962,3.5994,3.605,3.6121,3.6155,3.6149,3.6257,3.6229,3.6232,3.6236,3.6277,3.6284,3.6291,3.6199,3.6199,3.6199,0,0,3.5582,3.5623,3.5678,3.5718,3.5778,3.5808,3.5821,3.5884,3.5906,3.5976,3.5991,3.6038,3.6129,3.6168,3.62,3.6266,3.6274,3.6282,3.6304,3.6344,3.635,3.6356,3.638,3.6388,3.6288,3.6288,3.6288,0,3.559,3.5672,3.5704,3.5761,3.5797,3.5816,3.5872,3.5909,3.5982,3.6006,3.5998,3.6114,3.6153,3.6234,3.625,3.6275,3.6291,3.6275,3.6347,3.6353,3.6359,3.6382,3.6391,3.6288,3.6288,3.6288,3.6288,0,3.5678,3.5735,3.5772,3.5844,3.5884,3.5939,3.598,3.6016,3.6032,3.6063,3.6133,3.6181,3.6243,3.6264,3.6279,3.6347,3.6342,3.634,3.6325,3.6367,3.639,3.6399,3.6289,3.6289,3.6289,3.6288,0,0,3.5724,3.5815,3.5828,3.5861,3.5929,3.5973,3.6029,3.6091,3.6121,3.6171,3.6219,3.6296,3.6295,3.6331,3.6351,3.6386,3.6436,3.638,3.6382,3.6389,3.6514,3.6515,3.6525,3.6441,3.6443,3.6445,3.6509,0,3.5783,3.5886,3.5917,3.6002,3.6055,3.6075,3.6123,3.617,3.62,3.6248,3.628,3.6335,3.6329,3.6351,3.6386,3.6422,3.6461,3.6418,3.6486,3.6488,3.6472,3.6537,3.6538,3.6597,3.6518,3.652,3.6521,0,3.5866,3.5919,3.601,3.6072,3.6095,3.6139,3.6198,3.6244,3.6297,3.6316,3.6357,3.6375,3.6433,3.6415,3.6496,3.6466,3.6496,3.6517,3.652,3.6528,3.6507,3.6546,3.6616,3.6625,3.6535,3.6534,3.6533,0,3.5891,3.5985,3.6052,3.6079,3.6153,3.6183,3.6215,3.6267,3.6302,3.6354,3.6377,3.6434,3.6466,3.6509,3.6542,3.6525,3.662,3.6605,3.6638,3.6637,3.6657,3.6655,3.6733,3.6675,3.6675,3.6675,3.6675,0,3.5954,3.6009,3.6064,3.6105,3.6167,3.6202,3.6262,3.6295,3.634,3.6388,3.6407,3.6451,3.6491,3.6539,3.6565,3.6628,3.6642,3.6659,3.6665,3.6658,3.6656,3.6678,3.6675,3.6677,3.6677,3.6676,3.6676,0,3.5993,3.6032,3.6106,3.617,3.6187,3.623,3.6285,3.6325,3.6355,3.6415,3.6431,3.6479,3.6537,3.6574,3.6647,3.6665,3.6735,3.6739,3.6717,3.672,3.6751,3.6748,3.6846,3.6861,3.6793,3.6793,3.6794,0,3.6031,3.6074,3.6143,3.6177,3.6209,3.6263,3.6299,3.6335,3.6372,3.6436,3.6468,3.6528,3.6578,3.667,3.6711,3.6768,3.6774,3.6805,3.6783,3.6774,3.6775,3.6773,3.6777,3.6808,3.6809,3.6809,3.681,0,3.6095,3.6112,3.6165,3.6224,3.6268,3.6316,3.6364,3.639,3.6434,3.6474,3.6535,3.6574,3.665,3.6709,3.6769,3.6801,3.6813,3.6816,3.6827,3.682,3.6806,3.6815,3.6728,3.6814,3.6814,3.6813,3.6813,3.6813,3.6135,3.6174,3.6229,3.6287,3.6327,3.6372,3.6413,3.6449,3.6501,3.6566,3.6583,3.6647,3.6699,3.6781,3.6814,3.6864,3.686,3.6875,3.6879,3.6882,3.6883,3.6798,3.6875,3.6875,3.6875,3.6875,3.6875,0,3.62,3.6236,3.6289,3.6356,3.6402,3.641,3.6463,3.6501,3.6557,3.6604,3.6654,3.6723,3.6781,3.6826,3.6885,3.6916,3.6923,3.6931,3.6929,3.6936,3.6883,3.6869,3.6924,3.6924,3.6924,3.6924,3.6924,3.6924,3.6239,3.6306,3.633,3.6417,3.6452,3.6516,3.6546,3.6587,3.6625,3.6703,3.6751,3.6781,3.6828,3.689,3.6943,3.6955,3.6976,3.6983,3.6996,3.6945,3.694,3.6935,3.6921,3.6987,3.6987,3.7045,3.7045,3.7045]}]]